Weather Roundup
Issued by NWS Corpus Christi, TX

Home | Current Version | Previous Version | Text Only | Print | Product List | Glossary On
Versions: 1 2 3 4 5 6 7 8 9 10 11 12 13 14 15 16 17 18 19 20 21 22 23 24 25 26 27 28 29 30 31 32 33 34 35 36 37 38 39 40 41 42 43 44 45 46 47 48 49 50
000
ASUS44 KCRP 250810
HRRCRP

SOUTH TEXAS REGIONAL WEATHER ROUNDUP
NATIONAL WEATHER SERVICE CORPUS CHRISTI TX
200 AM CST SAT FEB 25 2017


TXZ229>244-250900-
...CORPUS CHRISTI AREA OBSERVATIONS...

CITY           SKY/WX    TMP DP  RH WIND       PRES   REMARKS
CORPUS CHRISTI CLEAR     61  44  53 NE16      29.97R
NAS CORPUS CHR CLEAR     64  54  69 NE22      29.96R
ROCKPORT       PTCLDY    60  44  55 NE17      29.96R
KINGSVILLE NAS CLEAR     59  40  49 N10       29.97R
ALICE          CLEAR     57  37  47 NE9       29.98R
ORANGE GROVE   PTCLDY    57  40  52 NE7       30.00R
FALFURRIAS     CLEAR     57  37  47 N3        29.97R
$$

...VICTORIA AREA OBSERVATIONS...

CITY           SKY/WX    TMP DP  RH WIND       PRES   REMARKS
VICTORIA       CLEAR     52  45  77 N8        30.00R
BEEVILLE       FAIR      55  42  63 NE8       29.98R
PLEASANTON     CLEAR     55  35  47 NE9       30.02R
SAN ANTONIO    CLEAR     54  34  46 N10       30.03R
$$

...LAREDO AREA OBSERVATIONS...

CITY           SKY/WX    TMP DP  RH WIND       PRES   REMARKS
LAREDO         CLEAR     60  34  37 E9        29.97R
COTULLA        CLEAR     56  33  42 E7        30.01R
DEL RIO        CLEAR     49  31  49 NW5       30.01R
MCALLEN        CLEAR     70  58  65 NE8       29.93S
HEBBRONVILLE   CLEAR     55  32  41 CALM      29.98S
$$

...OTHER TEXAS OBSERVATIONS...

CITY           SKY/WX    TMP DP  RH WIND       PRES   REMARKS
BROWNSVILLE    CLEAR     68  66  93 N5        29.92R
HOUSTON        CLEAR     54  37  52 N5        30.01R
COL. STATION   CLEAR     50  35  56 N12       30.04R
AUSTIN         CLEAR     51  34  52 N14       30.05S
WACO           CLEAR     44  34  67 N12       30.10R
FORT WORTH     PTCLDY    44  26  49 N22       30.11R
WICHITA FALLS  PTCLDY    31  25  78 N8        30.18R
LUBBOCK        CLEAR     32  18  56 E10       30.12R WCI  24
EL PASO        CLEAR     51   6  16 N8        30.08S
$$

...MARINE OBSERVATIONS...

STATION/POSITION TIME  SKY/WX   TEMP    WIND        PRES    VSBY  WAVE   SWELL
                                AIR SEA DIR/SP/G                  HT/PER HT/PER
                 (UTC)          (F)     (DEG/KT/KT) (MB)    (MI)  (FT/S) (FT/S)
PORT ARANSAS     0700            65 67   20/ 30/ 32 1012.7F
BUOY 90 E PORT A 0750            67 69   20/ 21/ 25 1013.4R         6/ 5   2/15
BUOY 45 SE BAFFI 0750            71      40/ 23/ 27 1012.2R         7/ 5
BUOY 200 E PT IS 0650            73 74   30/  4/  4 1011.7          4/ 6   5/ 6
BUOY 15 E GALVES 0750            62 66  360/ 21/ 27 1014.2R         5/ 4
$$




USA.gov is the U.S. government's official web portal to all federal, state and local government web resources and services.